[[{"header":{"parameterUnit":"m.s-1","parameterCategory":1,"la1":30.2992,"la2":30.254,"lo1":-89.0895,"lo2":-89.0443,"dy":0.0025,"dx":0.0025,"nx":19,"ny":19,"refTime":"2026-03-29T09:00:00:Z","depth":0,"parameterNumber":2,"parameterNumberName":"U-component_of_WINDS"},"data":[0,0,0,-6.5524,-6.5534,-6.6011,-6.6013,-6.6638,-6.6643,0,0,0,0,0,0,0,0,0,0,0,-6.5387,-6.5392,-6.5523,-6.5535,-6.6011,-6.6013,-6.6636,-6.6643,0,0,0,0,0,0,0,0,0,0,0,-6.5385,-6.5391,-6.5396,-6.5537,-6.6011,-6.6013,-6.6635,-6.6271,0,0,0,0,0,0,0,0,0,0,-6.5807,-6.5683,-6.5389,-6.5396,-6.554,-6.601,-6.6013,-6.6254,-6.6294,-6.6427,0,-6.6541,0,-6.6602,-6.6685,-6.6688,0,0,0,-6.5533,-6.565,-6.5774,-6.5397,-6.5544,-6.6009,-6.5796,-6.6276,-6.6322,-6.648,-6.655,-6.6573,-6.6612,-6.669,-6.6693,-6.7452,-6.7456,0,0,-6.5507,-6.5477,-6.5742,-6.5803,-6.5726,-6.5781,-6.5811,-6.6304,-6.638,-6.6552,-6.6587,-6.6623,-6.6694,-6.6699,-6.7449,-6.7453,0,0,0,-6.5433,-6.5458,-6.557,-6.5778,-6.5862,-6.5794,-6.5829,-6.6358,-6.6396,-6.6594,-6.663,-6.6697,-6.6705,-6.7445,-6.745,-6.7597,0,0,0,-6.5417,-6.5415,-6.5559,-6.5545,-6.5853,-6.6115,-6.5872,-6.6362,-6.6419,-6.6627,-6.6698,-6.6711,-6.7441,-6.7448,-6.7584,-6.7671,0,0,0,-6.5355,-6.5407,-6.5477,-6.5542,-6.5745,-6.6108,-6.6175,-6.6375,-6.6441,-6.6688,-6.6713,-6.7438,-6.7446,-6.7573,-6.7653,-6.786,0,0,0,-6.5281,-6.5604,-6.5479,-6.5854,-6.5741,-6.6194,-6.6172,-6.6512,-6.6742,-6.6701,-6.7441,-6.745,-6.7569,-6.7641,-6.7848,-6.8027,-6.8099,0,0,-6.5671,-6.5649,-6.5873,-6.5775,-6.6241,-6.6124,-6.6615,-6.6856,-6.6911,-6.727,-6.7289,-6.7588,-6.7651,-6.7858,-6.8519,-6.8575,0,0,0,-6.5986,-6.6145,-6.6276,-6.6491,-6.6681,-6.6852,-6.7021,-6.7111,-6.7417,-6.7087,-6.7722,-6.7761,-6.7883,-6.797,-6.8018,-6.8125,-6.7489,-6.7488,-6.7487,-6.6492,-6.6542,-6.6914,-6.7022,-6.7232,-6.7403,-6.7578,-6.773,-6.7721,-6.7871,-6.7976,-6.8371,-6.8472,-6.8508,-6.8619,-6.8077,-6.8078,-6.8079,-6.8079,-6.7067,-6.73,-6.7279,-6.7632,-6.7685,-6.7985,-6.8165,-6.8149,-6.8438,-6.8295,-6.8406,-6.8242,-6.8569,-6.8668,-6.8091,-6.8089,-6.8087,-6.8086,-6.8085,-6.7401,-6.7521,-6.7624,-6.794,-6.818,-6.828,-6.8557,-6.8597,-6.8637,-6.8747,-6.8862,-6.886,-6.8861,-6.8799,-6.8801,-6.8802,-6.8803,-6.8804,-6.8805,-6.7706,-6.7817,-6.8043,-6.8273,-6.8417,-6.8612,-6.879,-6.8934,-6.9105,-6.9112,-6.9113,-6.9089,-6.8592,-6.8464,-6.8827,-6.8823,-6.882,-6.8818,-6.8817,-6.8265,-6.8145,-6.8494,-6.8638,-6.8912,-6.9148,-6.9196,-6.9487,-6.9613,-6.9749,-6.9704,-6.933,-6.9311,-6.9273,-6.9168,-6.9691,-6.9691,-6.9691,-6.9692,-6.8545,-6.854,-6.8906,-6.9133,-6.9362,-6.944,-6.9838,-6.9982,-7.0112,-7.0194,-7.0125,-6.999,-6.9949,-6.9955,-6.9902,-6.9804,-7.0478,-7.0479,-7.048,-6.8891,-6.891,-6.9237,-6.9359,-6.9577,-6.9765,-7.014,-7.0406,-7.053,-7.0513,-7.0259,-7.0225,-7.0008,-6.9934,-6.9907,-6.9824,-6.9645,0,0]},{"header":{"parameterUnit":"m.s-1","parameterCategory":1,"la1":30.2992,"la2":30.254,"lo1":-89.0895,"lo2":-89.0443,"dy":0.0025,"dx":0.0025,"nx":19,"ny":19,"refTime":"2026-03-29T09:00:00:Z","depth":0,"parameterNumber":3,"parameterNumberName":"V-component_of_WINDS"},"data":[0,0,0,1.3984,1.399,1.4323,1.4324,1.4738,1.4741,0,0,0,0,0,0,0,0,0,0,0,1.3877,1.388,1.3983,1.3991,1.4322,1.4324,1.4737,1.4742,0,0,0,0,0,0,0,0,0,0,0,1.3876,1.3879,1.3882,1.3992,1.4322,1.4324,1.4736,1.449,0,0,0,0,0,0,0,0,0,0,1.417,1.4063,1.3878,1.3882,1.3994,1.4322,1.4324,1.4479,1.4506,1.4583,0,1.4647,0,1.4701,1.4768,1.477,0,0,0,1.3998,1.4041,1.4137,1.3883,1.3997,1.4321,1.4175,1.4494,1.4524,1.4618,1.4653,1.4669,1.4708,1.4771,1.4773,1.5193,1.5194,0,0,1.3979,1.3933,1.4116,1.4157,1.4103,1.4164,1.4185,1.4512,1.4548,1.4655,1.4679,1.4715,1.4774,1.4777,1.5191,1.5193,0,0,0,1.3922,1.392,1.4009,1.4139,1.42,1.4174,1.4198,1.4534,1.4566,1.4684,1.4719,1.4776,1.4781,1.5189,1.5192,1.5229,0,0,0,1.3912,1.3887,1.4,1.3976,1.4193,1.4371,1.4211,1.4544,1.4582,1.4717,1.4776,1.4785,1.5188,1.5191,1.5224,1.5255,0,0,0,1.3858,1.3881,1.3926,1.3972,1.4113,1.4366,1.4418,1.4553,1.4604,1.477,1.4786,1.5186,1.519,1.522,1.5248,1.5352,0,0,0,1.3789,1.3954,1.3925,1.4124,1.411,1.4386,1.4417,1.4625,1.4772,1.4778,1.5188,1.5192,1.5218,1.5243,1.5347,1.5432,1.5462,0,0,1.3972,1.3975,1.4096,1.408,1.4348,1.4339,1.4615,1.4794,1.4853,1.5076,1.5087,1.5226,1.5247,1.5351,1.565,1.5673,0,0,0,1.4138,1.4224,1.4306,1.4443,1.4582,1.4705,1.4847,1.4913,1.5105,1.4957,1.5293,1.5307,1.537,1.5413,1.5433,1.549,1.5209,1.5209,1.5208,1.4331,1.4397,1.4601,1.4707,1.484,1.4984,1.5098,1.5213,1.524,1.5318,1.5385,1.5558,1.5607,1.5622,1.5681,1.5435,1.5435,1.5435,1.5435,1.4606,1.4739,1.4772,1.4982,1.5051,1.5229,1.5374,1.5388,1.5565,1.5513,1.5572,1.551,1.5646,1.5702,1.5439,1.5438,1.5438,1.5437,1.5437,1.4741,1.4816,1.4893,1.5099,1.525,1.5352,1.552,1.5577,1.5632,1.569,1.5767,1.5767,1.5774,1.5722,1.5723,1.5724,1.5724,1.5725,1.5725,1.485,1.4936,1.507,1.5233,1.5329,1.5462,1.5609,1.5706,1.5828,1.5856,1.5857,1.5877,1.5647,1.5588,1.5735,1.5733,1.5732,1.5731,1.573,1.5106,1.5057,1.5264,1.536,1.5556,1.5703,1.5773,1.5965,1.6054,1.6135,1.6143,1.5963,1.5971,1.5955,1.5907,1.6127,1.6127,1.6127,1.6127,1.522,1.5229,1.5454,1.5604,1.5757,1.5842,1.6075,1.6191,1.6304,1.6363,1.6339,1.628,1.6261,1.628,1.6257,1.6213,1.6506,1.6507,1.6507,1.5382,1.5408,1.5595,1.5703,1.5861,1.5996,1.6217,1.6389,1.6507,1.6524,1.641,1.6394,1.6299,1.6265,1.6279,1.6242,1.6163,0,0]}]]